Location: Geremba
(10.4250°N, 67.2394°W)
Time: 11:55:33
(UTC+00:00)

NOAA 12 - Pass Details

Date: 23 May 2024
Orbit: 794 x 814 km, 98.6° (Epoch: 20 June)

Event Time Altitude Azimuth Distance (km) Brightness Sun altitude
Rises 09:36:34 0° 7° (N) 3,295 7.7 -7.6°
Reaches altitude 10° 09:38:54 10° 5° (N) 2,368 6.9 -7.1°
Maximum altitude 09:44:05 68° 283° (WNW) 860 4.1 -5.9°
Drops below altitude 10° 09:49:19 10° 201° (SSW) 2,382 6.2 -4.7°
Sets 09:51:40 0° 198° (SSW) 3,316 6.9 -4.2°
